| time (UTC) | temp C | wind direction | speed KPH | gust KPH | rain 1hr cm | rain 24hr cm | rain mn cm | humidity % | barometer mb |
| 20260508222833 | 23 | 97 | 0.0 | 0.0 | 0.00 | 0.00 | 0.00 | 82 | 1010.5 |
| 20260508222603 | 22 | 116 | 0.0 | 0.0 | 0.00 | 0.00 | 0.00 | 82 | 1009.5 |
| 20260508222330 | 23 | 154 | 0.0 | 0.0 | 0.00 | 0.00 | 0.00 | 82 | 1010.7 |
| 20260508222054 | 22 | 115 | 0.0 | 0.0 | 0.00 | 0.00 | 0.00 | 82 | 1009.6 |
| 20260508221847 | 22 | 99 | 0.0 | 0.0 | 0.00 | 0.00 | 0.00 | 82 | 1010.7 |
| 20260508221531 | 22 | 133 | 0.0 | 0.0 | 0.00 | 0.00 | 0.00 | 83 | 1009.6 |
| 20260508221322 | 22 | 145 | 0.0 | 0.0 | 0.00 | 0.00 | 0.00 | 83 | 1010.8 |
| 20260508221008 | 22 | 141 | 0.0 | 0.0 | 0.00 | 0.00 | 0.00 | 82 | 1009.6 |
| 20260508220819 | 22 | 98 | 0.0 | 0.0 | 0.00 | 0.00 | 0.00 | 82 | 1010.7 |
| 20260508220604 | 22 | 127 | 0.0 | 0.0 | 0.00 | 0.00 | 0.00 | 82 | 1009.7 |
| 20260508220316 | 22 | 130 | 0.0 | 0.0 | 0.00 | 0.00 | 0.00 | 82 | 1010.8 |
| 20260508220054 | 22 | 102 | 0.0 | 0.0 | 0.00 | 0.00 | 0.00 | 82 | 1009.7 |
| 20260508215832 | 22 | 87 | 0.0 | 0.0 | 0.00 | 0.00 | 0.00 | 81 | 1010.9 |
| 20260508215518 | 22 | 88 | 0.0 | 0.0 | 0.00 | 0.00 | 0.00 | 82 | 1009.6 |
| 20260508215329 | 23 | 81 | 0.0 | 0.0 | 0.00 | 0.00 | 0.00 | 82 | 1010.9 |
| 20260508215008 | 22 | 137 | 0.0 | 0.0 | 0.00 | 0.00 | 0.00 | 82 | 1009.8 |
| 20260508214845 | 23 | 145 | 0.0 | 0.0 | 0.00 | 0.00 | 0.00 | 81 | 1010.9 |
| 20260508214542 | 22 | 157 | 0.0 | 0.0 | 0.00 | 0.00 | 0.00 | 81 | 1009.9 |
| 20260508214341 | 23 | 112 | 0.0 | 0.0 | 0.00 | 0.00 | 0.00 | 81 | 1011.0 |
| 20260508214014 | 22 | 106 | 0.0 | 0.0 | 0.00 | 0.00 | 0.00 | 81 | 1009.9 |
| 20260508213816 | 23 | 139 | 0.0 | 0.0 | 0.00 | 0.00 | 0.00 | 81 | 1011.0 |
| 20260508213555 | 23 | 84 | 0.0 | 0.0 | 0.00 | 0.00 | 0.00 | 81 | 1009.8 |
| 20260508213333 | 23 | 115 | 0.0 | 0.0 | 0.00 | 0.00 | 0.00 | 82 | 1011.0 |
| 20260508213059 | 22 | 159 | 0.0 | 0.0 | 0.00 | 0.00 | 0.00 | 82 | 1010.0 |
| 20260508212828 | 23 | 78 | 0.0 | 0.0 | 0.00 | 0.00 | 0.00 | 82 | 1011.0 |
| 20260508212538 | 22 | 152 | 0.0 | 0.0 | 0.00 | 0.00 | 0.00 | 81 | 1010.0 |
| 20260508212323 | 23 | 106 | 0.0 | 0.0 | 0.00 | 0.00 | 0.00 | 82 | 1011.1 |
| 20260508212033 | 22 | 129 | 0.0 | 0.0 | 0.00 | 0.00 | 0.00 | 82 | 1010.0 |
| 20260508211819 | 22 | 90 | 0.0 | 0.0 | 0.00 | 0.00 | 0.00 | 82 | 1011.1 |
| 20260508211558 | 22 | 81 | 0.0 | 0.0 | 0.00 | 0.00 | 0.00 | 82 | 1010.3 |
| 20260508211335 | 22 | 118 | 0.0 | 0.0 | 0.00 | 0.00 | 0.00 | 82 | 1011.4 |
| 20260508211029 | 22 | 162 | 0.0 | 0.0 | 0.00 | 0.00 | 0.00 | 82 | 1010.3 |
| 20260508210828 | 22 | 68 | 0.0 | 0.0 | 0.00 | 0.00 | 0.00 | 83 | 1011.4 |
| 20260508210509 | 22 | 87 | 0.0 | 0.0 | 0.00 | 0.00 | 0.00 | 82 | 1010.3 |
| 20260508210324 | 22 | 126 | 0.0 | 0.0 | 0.00 | 0.00 | 0.00 | 82 | 1011.5 |
| 20260508210002 | 22 | 119 | 0.0 | 0.0 | 0.00 | 0.00 | 0.00 | 82 | 1010.5 |
| 20260508205820 | 22 | 102 | 0.0 | 0.0 | 0.00 | 0.00 | 0.00 | 82 | 1011.5 |
| 20260508205557 | 22 | 117 | 0.0 | 0.0 | 0.00 | 0.00 | 0.00 | 82 | 1010.7 |
| 20260508205317 | 22 | 133 | 0.0 | 0.0 | 0.00 | 0.00 | 0.00 | 83 | 1011.7 |
| 20260508205053 | 22 | 163 | 0.0 | 0.0 | 0.00 | 0.00 | 0.00 | 84 | 1010.6 |
| 20260508204834 | 22 | 120 | 0.0 | 0.0 | 0.00 | 0.00 | 0.00 | 83 | 1011.6 |
| 20260508204546 | 22 | 64 | 0.0 | 0.0 | 0.00 | 0.00 | 0.00 | 83 | 1010.6 |
| 20260508204329 | 22 | 85 | 0.0 | 0.0 | 0.00 | 0.00 | 0.00 | 83 | 1011.8 |
| 20260508204039 | 22 | 131 | 0.0 | 0.0 | 0.00 | 0.00 | 0.00 | 83 | 1010.9 |
| 20260508203825 | 22 | 89 | 0.0 | 0.0 | 0.00 | 0.00 | 0.00 | 82 | 1011.9 |
| 20260508203535 | 22 | 76 | 0.0 | 0.0 | 0.00 | 0.00 | 0.00 | 82 | 1010.8 |
| 20260508203322 | 22 | 112 | 0.0 | 0.0 | 0.00 | 0.00 | 0.00 | 82 | 1011.9 |
| 20260508203032 | 22 | 86 | 0.0 | 0.0 | 0.00 | 0.00 | 0.00 | 82 | 1010.8 |
| 20260508202817 | 22 | 139 | 0.0 | 0.0 | 0.00 | 0.00 | 0.00 | 82 | 1012.0 |
| 20260508202519 | 22 | 25 | 0.0 | 0.0 | 0.00 | 0.00 | 0.00 | 83 | 1011.0 |
| 20260508202332 | 22 | 81 | 0.0 | 0.0 | 0.00 | 0.00 | 0.00 | 83 | 1012.1 |
| 20260508202103 | 22 | 158 | 0.0 | 0.0 | 0.00 | 0.00 | 0.00 | 83 | 1011.1 |
| 20260508201827 | 22 | 88 | 0.0 | 0.0 | 0.00 | 0.00 | 0.00 | 83 | 1012.2 |
| 20260508201609 | 21 | 153 | 0.0 | 0.0 | 0.00 | 0.00 | 0.00 | 84 | 1011.2 |
| 20260508201323 | 21 | 140 | 0.0 | 0.0 | 0.00 | 0.00 | 0.00 | 83 | 1012.3 |
| 20260508201025 | 21 | 160 | 0.0 | 0.0 | 0.00 | 0.00 | 0.00 | 84 | 1011.4 |
| 20260508200838 | 21 | 130 | 0.0 | 0.0 | 0.00 | 0.00 | 0.00 | 84 | 1012.4 |
| 20260508200549 | 21 | 137 | 0.0 | 0.0 | 0.00 | 0.00 | 0.00 | 83 | 1011.7 |
| 20260508200332 | 21 | 141 | 0.0 | 0.0 | 0.00 | 0.00 | 0.00 | 84 | 1012.7 |
| 20260508200045 | 21 | 110 | 0.0 | 0.0 | 0.00 | 0.00 | 0.00 | 84 | 1011.8 |
| 20260508195828 | 21 | 144 | 0.0 | 0.0 | 0.00 | 0.03 | 0.00 | 84 | 1012.7 |
| 20260508195532 | 21 | 156 | 0.0 | 0.0 | 0.00 | 0.03 | 0.00 | 84 | 1011.7 |
| 20260508195325 | 21 | 129 | 0.0 | 0.0 | 0.00 | 0.03 | 0.00 | 84 | 1012.7 |
| 20260508195023 | 21 | 83 | 0.0 | 0.0 | 0.00 | 0.03 | 0.00 | 84 | 1011.8 |
| 20260508194820 | 21 | 114 | 0.0 | 0.0 | 0.00 | 0.03 | 0.00 | 84 | 1012.7 |
| 20260508194507 | 21 | 103 | 0.0 | 0.0 | 0.00 | 0.03 | 0.00 | 84 | 1011.7 |
| 20260508194317 | 21 | 108 | 0.0 | 0.0 | 0.00 | 0.03 | 0.00 | 84 | 1012.6 |
| 20260508194101 | 21 | 89 | 0.0 | 0.0 | 0.00 | 0.03 | 0.00 | 85 | 1011.8 |
| 20260508193833 | 21 | 104 | 0.0 | 0.0 | 0.00 | 0.03 | 0.00 | 84 | 1012.8 |
| 20260508193557 | 21 | 112 | 0.0 | 0.0 | 0.00 | 0.03 | 0.00 | 84 | 1011.7 |
| 20260508193330 | 21 | 137 | 0.0 | 0.0 | 0.00 | 0.03 | 0.00 | 84 | 1012.9 |
| 20260508193054 | 21 | 106 | 0.0 | 0.0 | 0.00 | 0.03 | 0.00 | 84 | 1011.9 |
| 20260508192825 | 21 | 87 | 0.0 | 0.0 | 0.00 | 0.03 | 0.00 | 84 | 1012.9 |
| 20260508192541 | 20 | 114 | 0.0 | 0.0 | 0.00 | 0.03 | 0.00 | 84 | 1011.8 |
| 20260508192323 | 21 | 116 | 0.0 | 0.0 | 0.00 | 0.03 | 0.00 | 85 | 1012.9 |
| 20260508192036 | 20 | 92 | 0.0 | 0.0 | 0.00 | 0.03 | 0.00 | 85 | 1012.0 |
| 20260508191839 | 20 | 107 | 0.0 | 0.0 | 0.00 | 0.03 | 0.00 | 85 | 1013.1 |
| 20260508191559 | 20 | 106 | 0.0 | 0.0 | 0.00 | 0.03 | 0.00 | 85 | 1012.2 |
| 20260508191315 | 20 | 154 | 0.0 | 0.0 | 0.00 | 0.03 | 0.00 | 85 | 1013.1 |
| 20260508191051 | 20 | 97 | 0.0 | 0.0 | 0.00 | 0.03 | 0.00 | 85 | 1012.3 |
| 20260508190831 | 20 | 95 | 0.0 | 0.0 | 0.00 | 0.03 | 0.00 | 85 | 1013.2 |
| 20260508190547 | 20 | 100 | 0.0 | 0.0 | 0.00 | 0.03 | 0.00 | 85 | 1012.2 |
| 20260508190327 | 20 | 145 | 0.0 | 0.0 | 0.00 | 0.03 | 0.00 | 85 | 1013.2 |
| 20260508190049 | 20 | 140 | 0.0 | 0.0 | 0.00 | 0.03 | 0.00 | 85 | 1012.2 |
| 20260508185823 | 20 | 47 | 0.0 | 0.0 | 0.00 | 0.03 | 0.00 | 85 | 1013.2 |
| 20260508185535 | 20 | 133 | 0.0 | 0.0 | 0.00 | 0.03 | 0.00 | 85 | 1012.3 |
| 20260508185318 | 20 | 111 | 0.0 | 0.0 | 0.00 | 0.03 | 0.00 | 85 | 1013.3 |
| 20260508185103 | 20 | 128 | 0.0 | 0.0 | 0.00 | 0.03 | 0.00 | 85 | 1012.4 |
| 20260508184853 | 20 | 75 | 0.0 | 0.0 | 0.00 | 0.03 | 0.00 | 85 | 1013.3 |
| 20260508184538 | 20 | 56 | 0.0 | 0.0 | 0.00 | 0.03 | 0.00 | 85 | 1012.4 |
| 20260508184329 | 20 | 21 | 0.0 | 0.0 | 0.00 | 0.03 | 0.00 | 85 | 1013.1 |
| 20260508184031 | 20 | 44 | 0.0 | 0.0 | 0.00 | 0.03 | 0.00 | 85 | 1012.2 |
| 20260508183823 | 20 | 77 | 0.0 | 0.0 | 0.00 | 0.03 | 0.00 | 86 | 1013.2 |
| 20260508183557 | 20 | 102 | 0.0 | 0.0 | 0.00 | 0.03 | 0.00 | 85 | 1012.3 |
| 20260508183320 | 20 | 142 | 0.0 | 0.0 | 0.00 | 0.03 | 0.00 | 85 | 1013.2 |
| 20260508183054 | 20 | 87 | 0.0 | 0.0 | 0.00 | 0.03 | 0.00 | 85 | 1012.4 |
| 20260508182816 | 20 | 51 | 0.0 | 0.0 | 0.00 | 0.03 | 0.00 | 86 | 1013.2 |
| 20260508182544 | 20 | 95 | 0.0 | 0.0 | 0.00 | 0.03 | 0.00 | 86 | 1012.4 |
| 20260508182328 | 20 | 61 | 0.0 | 0.0 | 0.00 | 0.03 | 0.00 | 85 | 1013.3 |
| 20260508182035 | 20 | 91 | 0.0 | 0.0 | 0.00 | 0.03 | 0.00 | 86 | 1012.6 |
| 20260508181825 | 20 | 85 | 0.0 | 0.0 | 0.00 | 0.03 | 0.00 | 85 | 1013.5 |
| 20260508181543 | 20 | 27 | 0.0 | 0.0 | 0.00 | 0.03 | 0.00 | 86 | 1012.7 |
| 20260508181322 | 20 | 120 | 0.0 | 0.0 | 0.00 | 0.03 | 0.00 | 85 | 1013.6 |
| 20260508181020 | 20 | 120 | 0.0 | 0.0 | 0.00 | 0.03 | 0.00 | 86 | 1012.8 |
| 20260508180818 | 20 | 69 | 0.0 | 0.0 | 0.00 | 0.03 | 0.00 | 86 | 1013.7 |
| 20260508180504 | 20 | 127 | 0.0 | 0.0 | 0.00 | 0.03 | 0.00 | 86 | 1012.8 |
| 20260508180314 | 20 | 99 | 0.0 | 0.0 | 0.00 | 0.03 | 0.00 | 86 | 1013.8 |
| 20260508180110 | 20 | 163 | 0.0 | 0.0 | 0.00 | 0.03 | 0.00 | 86 | 1012.8 |
| 20260508175831 | 20 | 139 | 0.0 | 0.0 | 0.00 | 0.03 | 0.00 | 86 | 1013.7 |
| 20260508175547 | 19 | 149 | 0.0 | 0.0 | 0.00 | 0.03 | 0.00 | 86 | 1012.9 |
| 20260508175326 | 20 | 114 | 0.0 | 0.0 | 0.00 | 0.03 | 0.00 | 86 | 1013.8 |
| 20260508175042 | 19 | 21 | 0.0 | 0.0 | 0.00 | 0.03 | 0.00 | 86 | 1012.9 |
| 20260508174843 | 20 | 50 | 0.0 | 0.0 | 0.00 | 0.03 | 0.00 | 86 | 1013.8 |
| 20260508174515 | 19 | 74 | 0.0 | 0.0 | 0.00 | 0.03 | 0.00 | 86 | 1013.0 |
| 20260508174339 | 20 | 88 | 0.0 | 0.0 | 0.00 | 0.03 | 0.00 | 86 | 1013.9 |
| 20260508174041 | 19 | 110 | 0.0 | 0.0 | 0.00 | 0.03 | 0.00 | 85 | 1013.0 |
| 20260508173814 | 20 | 110 | 0.0 | 0.0 | 0.00 | 0.03 | 0.00 | 86 | 1013.9 |
| 20260508173533 | 19 | 71 | 0.0 | 0.0 | 0.00 | 0.03 | 0.00 | 86 | 1013.0 |
| 20260508173330 | 19 | 60 | 0.0 | 0.0 | 0.00 | 0.03 | 0.00 | 86 | 1013.9 |
| 20260508173030 | 19 | 77 | 0.0 | 0.0 | 0.00 | 0.03 | 0.00 | 86 | 1013.2 |
| 20260508172826 | 19 | 93 | 0.0 | 0.0 | 0.00 | 0.03 | 0.00 | 86 | 1014.1 |
| 20260508172524 | 19 | 72 | 0.0 | 0.0 | 0.00 | 0.03 | 0.00 | 86 | 1013.3 |
| 20260508172322 | 19 | 75 | 0.0 | 0.0 | 0.00 | 0.03 | 0.00 | 86 | 1014.2 |
| 20260508172003 | 19 | 30 | 0.0 | 0.0 | 0.00 | 0.03 | 0.00 | 86 | 1013.4 |
| 20260508171817 | 19 | 66 | 0.0 | 0.0 | 0.00 | 0.03 | 0.00 | 86 | 1014.3 |
| 20260508171557 | 19 | 58 | 0.0 | 0.0 | 0.00 | 0.03 | 0.00 | 86 | 1013.5 |
| 20260508171314 | 19 | 73 | 0.0 | 0.0 | 0.00 | 0.03 | 0.00 | 86 | 1014.5 |
| 20260508171049 | 18 | 85 | 0.0 | 0.0 | 0.00 | 0.03 | 0.00 | 86 | 1013.6 |
| 20260508170851 | 19 | 75 | 0.0 | 0.0 | 0.00 | 0.03 | 0.00 | 86 | 1014.5 |
| 20260508170515 | 18 | 120 | 0.0 | 0.0 | 0.00 | 0.03 | 0.00 | 86 | 1013.9 |
| 20260508170327 | 19 | 121 | 0.0 | 0.0 | 0.00 | 0.03 | 0.00 | 86 | 1014.7 |
| 20260508170007 | 19 | 87 | 0.0 | 0.0 | 0.00 | 0.03 | 0.00 | 86 | 1014.0 |
| 20260508165824 | 19 | 95 | 0.0 | 0.0 | 0.00 | 0.03 | 0.00 | 86 | 1014.8 |
| 20260508165601 | 19 | 110 | 0.0 | 0.0 | 0.00 | 0.03 | 0.00 | 86 | 1014.1 |
| 20260508165340 | 19 | 118 | 0.0 | 0.0 | 0.00 | 0.03 | 0.00 | 86 | 1014.9 |
| 20260508165049 | 19 | 73 | 0.0 | 6.4 | 0.00 | 0.03 | 0.00 | 86 | 1014.1 |
| 20260508164830 | 19 | 125 | 0.0 | 6.4 | 0.00 | 0.03 | 0.00 | 86 | 1014.9 |
| 20260508164543 | 18 | 125 | 0.0 | 9.7 | 0.00 | 0.03 | 0.00 | 86 | 1014.1 |
| 20260508164326 | 19 | 120 | 0.0 | 9.7 | 0.00 | 0.03 | 0.00 | 86 | 1014.9 |
| 20260508164031 | 18 | 108 | 3.2 | 11.3 | 0.00 | 0.03 | 0.00 | 86 | 1014.1 |
| 20260508163822 | 18 | 147 | 1.6 | 11.3 | 0.00 | 0.03 | 0.00 | 86 | 1014.9 |
| 20260508163521 | 18 | 148 | 1.6 | 11.3 | 0.00 | 0.03 | 0.00 | 86 | 1014.2 |
| 20260508163318 | 18 | 148 | 4.8 | 11.3 | 0.00 | 0.03 | 0.00 | 86 | 1015.0 |
| 20260508163017 | 18 | 97 | 3.2 | 11.3 | 0.00 | 0.03 | 0.00 | 86 | 1014.2 |
| 20260508162815 | 18 | 90 | 4.8 | 11.3 | 0.00 | 0.03 | 0.00 | 86 | 1015.0 |
| 20260508162503 | 18 | 130 | 3.2 | 11.3 | 0.00 | 0.03 | 0.00 | 86 | 1014.3 |
| 20260508162331 | 18 | 109 | 6.4 | 11.3 | 0.00 | 0.03 | 0.00 | 86 | 1015.1 |
| 20260508162058 | 18 | 197 | 3.2 | 12.9 | 0.00 | 0.03 | 0.00 | 87 | 1014.3 |
| 20260508161826 | 18 | 197 | 4.8 | 12.9 | 0.00 | 0.03 | 0.00 | 86 | 1015.1 |
| 20260508161535 | 18 | 148 | 3.2 | 12.9 | 0.00 | 0.03 | 0.00 | 86 | 1014.4 |
| 20260508161324 | 18 | 148 | 6.4 | 12.9 | 0.00 | 0.03 | 0.00 | 86 | 1015.1 |
| 20260508161023 | 18 | 122 | 4.8 | 12.9 | 0.00 | 0.03 | 0.00 | 86 | 1014.4 |
| 20260508160840 | 18 | 147 | 8.0 | 12.9 | 0.00 | 0.03 | 0.00 | 86 | 1015.2 |
| 20260508160548 | 18 | 170 | 1.6 | 9.7 | 0.00 | 0.03 | 0.00 | 86 | 1014.3 |
| 20260508160316 | 18 | 214 | 3.2 | 8.0 | 0.00 | 0.03 | 0.00 | 86 | 1015.1 |
| 20260508160041 | 18 | 185 | 4.8 | 8.0 | 0.00 | 0.03 | 0.00 | 86 | 1014.5 |
| 20260508155851 | 18 | 262 | 4.8 | 9.7 | 0.00 | 0.03 | 0.00 | 86 | 1015.2 |
| 20260508155505 | 18 | 125 | 3.2 | 8.0 | 0.00 | 0.03 | 0.00 | 87 | 1014.4 |
| 20260508155327 | 18 | 127 | 3.2 | 8.0 | 0.00 | 0.03 | 0.00 | 86 | 1015.2 |
| 20260508155059 | 18 | 149 | 4.8 | 9.7 | 0.00 | 0.03 | 0.00 | 86 | 1014.4 |
| 20260508154824 | 18 | 161 | 6.4 | 11.3 | 0.00 | 0.03 | 0.00 | 87 | 1015.1 |
| 20260508154557 | 17 | 149 | 3.2 | 11.3 | 0.00 | 0.03 | 0.00 | 87 | 1014.5 |
| 20260508154321 | 18 | 152 | 6.4 | 11.3 | 0.00 | 0.03 | 0.00 | 86 | 1015.3 |
| 20260508154049 | 17 | 167 | 3.2 | 8.0 | 0.00 | 0.03 | 0.00 | 86 | 1014.5 |
| 20260508153817 | 17 | 215 | 3.2 | 6.4 | 0.00 | 0.03 | 0.00 | 86 | 1015.1 |
| 20260508153537 | 17 | 214 | 3.2 | 12.9 | 0.00 | 0.03 | 0.00 | 86 | 1014.4 |
| 20260508153329 | 17 | 165 | 4.8 | 12.9 | 0.00 | 0.03 | 0.00 | 86 | 1015.2 |
| 20260508153031 | 17 | 166 | 4.8 | 12.9 | 0.00 | 0.03 | 0.00 | 86 | 1014.4 |
| 20260508152845 | 17 | 147 | 6.4 | 12.9 | 0.00 | 0.03 | 0.00 | 86 | 1015.3 |
| 20260508152500 | 17 | 161 | 8.0 | 9.7 | 0.00 | 0.03 | 0.00 | 86 | 1014.5 |
| 20260508152320 | 17 | 135 | 6.4 | 11.3 | 0.00 | 0.03 | 0.00 | 87 | 1015.1 |
| 20260508152055 | 17 | 145 | 4.8 | 8.0 | 0.00 | 0.03 | 0.00 | 87 | 1014.4 |
| 20260508151817 | 17 | 187 | 4.8 | 9.7 | 0.00 | 0.03 | 0.00 | 87 | 1015.1 |
| 20260508151547 | 17 | 141 | 6.4 | 9.7 | 0.00 | 0.03 | 0.00 | 87 | 1014.4 |
| 20260508151332 | 17 | 162 | 6.4 | 9.7 | 0.00 | 0.03 | 0.00 | 87 | 1015.1 |
| 20260508151039 | 16 | 162 | 3.2 | 12.9 | 0.00 | 0.03 | 0.00 | 87 | 1014.4 |
| 20260508150829 | 17 | 162 | 8.0 | 12.9 | 0.00 | 0.03 | 0.00 | 87 | 1015.1 |
| 20260508150533 | 16 | 165 | 6.4 | 12.9 | 0.00 | 0.03 | 0.00 | 87 | 1014.4 |
| 20260508150326 | 17 | 156 | 9.7 | 12.9 | 0.00 | 0.03 | 0.00 | 87 | 1015.0 |
| 20260508150027 | 16 | 162 | 4.8 | 9.7 | 0.00 | 0.03 | 0.00 | 87 | 1014.4 |
| 20260508145824 | 17 | 188 | 6.4 | 9.7 | 0.00 | 0.03 | 0.00 | 87 | 1015.1 |
| 20260508145523 | 16 | 133 | 3.2 | 11.3 | 0.00 | 0.03 | 0.00 | 87 | 1014.4 |
| 20260508145320 | 16 | 149 | 6.4 | 11.3 | 0.00 | 0.03 | 0.00 | 87 | 1015.0 |
| 20260508145004 | 16 | 149 | 6.4 | 12.9 | 0.00 | 0.03 | 0.00 | 87 | 1014.3 |
| 20260508144817 | 16 | 169 | 8.0 | 12.9 | 0.00 | 0.03 | 0.00 | 87 | 1015.0 |
| 20260508144601 | 16 | 156 | 4.8 | 12.9 | 0.00 | 0.03 | 0.00 | 87 | 1014.3 |
| 20260508144314 | 16 | 164 | 8.0 | 12.9 | 0.00 | 0.03 | 0.00 | 88 | 1015.0 |
| 20260508144053 | 16 | 130 | 0.0 | 4.8 | 0.00 | 0.03 | 0.00 | 88 | 1014.4 |
| 20260508143829 | 16 | 130 | 1.6 | 4.8 | 0.00 | 0.03 | 0.00 | 88 | 1014.9 |
| 20260508143545 | 16 | 130 | 1.6 | 4.8 | 0.00 | 0.03 | 0.00 | 88 | 1014.2 |
| 20260508143324 | 16 | 37 | 1.6 | 6.4 | 0.00 | 0.03 | 0.00 | 88 | 1015.0 |
| 20260508143039 | 16 | 37 | 0.0 | 8.0 | 0.00 | 0.03 | 0.00 | 89 | 1014.3 |
| 20260508142839 | 16 | 37 | 0.0 | 8.0 | 0.00 | 0.03 | 0.00 | 88 | 1014.8 |
| 20260508142527 | 15 | 4 | 4.8 | 8.0 | 0.00 | 0.03 | 0.00 | 88 | 1014.0 |
| 20260508142330 | 16 | 34 | 4.8 | 6.4 | 0.00 | 0.03 | 0.00 | 89 | 1014.6 |
| 20260508142011 | 15 | 22 | 1.6 | 4.8 | 0.00 | 0.03 | 0.00 | 89 | 1014.0 |
| 20260508141826 | 15 | 23 | 3.2 | 4.8 | 0.00 | 0.03 | 0.00 | 89 | 1014.9 |
| 20260508141509 | 15 | 22 | 0.0 | 4.8 | 0.00 | 0.03 | 0.00 | 89 | 1014.6 |
| 20260508141322 | 15 | 22 | 0.0 | 4.8 | 0.00 | 0.03 | 0.00 | 89 | 1015.3 |
| 20260508141056 | 15 | 19 | 1.6 | 4.8 | 0.00 | 0.03 | 0.00 | 89 | 1014.7 |
| 20260508140819 | 15 | 18 | 3.2 | 4.8 | 0.00 | 0.03 | 0.00 | 89 | 1015.5 |
| 20260508140553 | 15 | 101 | 1.6 | 4.8 | 0.00 | 0.03 | 0.00 | 89 | 1014.8 |
| 20260508140316 | 15 | 101 | 1.6 | 4.8 | 0.00 | 0.03 | 0.00 | 90 | 1015.5 |
| 20260508140048 | 15 | 101 | 0.0 | 3.2 | 0.00 | 0.03 | 0.00 | 90 | 1014.9 |
| 20260508135830 | 15 | 101 | 0.0 | 3.2 | 0.00 | 0.03 | 0.00 | 90 | 1015.5 |
| 20260508135533 | 15 | 101 | 0.0 | 3.2 | 0.00 | 0.03 | 0.00 | 90 | 1014.9 |
| 20260508135326 | 15 | 101 | 0.0 | 3.2 | 0.00 | 0.03 | 0.00 | 90 | 1015.6 |
| 20260508135026 | 15 | 101 | 0.0 | 3.2 | 0.00 | 0.03 | 0.00 | 90 | 1015.0 |
| 20260508134823 | 15 | 101 | 1.6 | 3.2 | 0.00 | 0.03 | 0.00 | 90 | 1015.6 |
| 20260508134511 | 14 | 101 | 0.0 | 1.6 | 0.00 | 0.03 | 0.00 | 90 | 1014.9 |
| 20260508134339 | 15 | 101 | 0.0 | 1.6 | 0.00 | 0.03 | 0.00 | 90 | 1015.6 |
| 20260508134040 | 14 | 101 | 0.0 | 1.6 | 0.00 | 0.03 | 0.00 | 90 | 1014.9 |
| 20260508133834 | 15 | 101 | 0.0 | 3.2 | 0.00 | 0.03 | 0.00 | 90 | 1015.7 |
| 20260508133532 | 14 | 101 | 0.0 | 3.2 | 0.00 | 0.03 | 0.00 | 90 | 1015.2 |
| 20260508133330 | 14 | 101 | 0.0 | 3.2 | 0.00 | 0.03 | 0.00 | 90 | 1015.9 |
| 20260508133021 | 14 | 101 | 0.0 | 1.6 | 0.00 | 0.03 | 0.00 | 90 | 1015.3 |
| 20260508132827 | 14 | 101 | 0.0 | 1.6 | 0.00 | 0.03 | 0.00 | 90 | 1015.9 |
| 20260508132514 | 14 | 102 | 0.0 | 1.6 | 0.00 | 0.03 | 0.00 | 90 | 1015.2 |
| 20260508132322 | 14 | 101 | 0.0 | 1.6 | 0.00 | 0.03 | 0.00 | 90 | 1015.9 |
| 20260508132001 | 14 | 102 | 0.0 | 1.6 | 0.00 | 0.03 | 0.00 | 90 | 1015.3 |
| 20260508131839 | 14 | 101 | 0.0 | 3.2 | 0.00 | 0.03 | 0.00 | 90 | 1015.9 |
| 20260508131535 | 14 | 101 | 0.0 | 3.2 | 0.00 | 0.03 | 0.00 | 90 | 1015.3 |
| 20260508131333 | 14 | 101 | 0.0 | 3.2 | 0.00 | 0.03 | 0.00 | 90 | 1016.0 |
| 20260508131014 | 14 | 101 | 1.6 | 3.2 | 0.00 | 0.03 | 0.00 | 90 | 1015.3 |
| 20260508130830 | 14 | 101 | 1.6 | 3.2 | 0.00 | 0.03 | 0.00 | 90 | 1016.0 |
| 20260508130506 | 14 | 101 | 0.0 | 1.6 | 0.00 | 0.03 | 0.00 | 90 | 1015.4 |
| 20260508130326 | 14 | 101 | 1.6 | 1.6 | 0.00 | 0.03 | 0.00 | 90 | 1016.1 |
| 20260508130001 | 14 | 101 | 0.0 | 3.2 | 0.00 | 0.03 | 0.00 | 90 | 1015.5 |
| 20260508125822 | 14 | 101 | 0.0 | 3.2 | 0.00 | 0.03 | 0.00 | 90 | 1016.1 |
| 20260508125557 | 13 | 101 | 0.0 | 3.2 | 0.00 | 0.03 | 0.00 | 90 | 1015.6 |
| 20260508125317 | 14 | 101 | 0.0 | 3.2 | 0.00 | 0.03 | 0.00 | 90 | 1016.3 |
| 20260508125031 | 13 | 101 | 0.0 | 1.6 | 0.00 | 0.03 | 0.00 | 90 | 1015.6 |
| 20260508124833 | 14 | 101 | 0.0 | 3.2 | 0.00 | 0.03 | 0.00 | 90 | 1016.4 |
| 20260508124514 | 13 | 101 | 0.0 | 3.2 | 0.00 | 0.03 | 0.00 | 90 | 1015.8 |
| 20260508124328 | 14 | 101 | 0.0 | 3.2 | 0.00 | 0.03 | 0.00 | 90 | 1016.4 |
| 20260508124007 | 13 | 101 | 0.0 | 4.8 | 0.00 | 0.03 | 0.00 | 90 | 1015.5 |
| 20260508123822 | 14 | 101 | 1.6 | 4.8 | 0.00 | 0.03 | 0.00 | 90 | 1016.1 |
| 20260508123601 | 13 | 101 | 1.6 | 8.0 | 0.00 | 0.03 | 0.00 | 90 | 1015.4 |
| 20260508123340 | 14 | 152 | 1.6 | 8.0 | 0.00 | 0.03 | 0.00 | 90 | 1016.1 |
| 20260508123032 | 13 | 152 | 3.2 | 8.0 | 0.00 | 0.03 | 0.00 | 90 | 1015.7 |
| 20260508122815 | 14 | 182 | 1.6 | 6.4 | 0.00 | 0.03 | 0.00 | 90 | 1016.3 |
| 20260508122512 | 13 | 181 | 1.6 | 6.4 | 0.00 | 0.03 | 0.00 | 90 | 1015.6 |
| 20260508122328 | 14 | 182 | 3.2 | 8.0 | 0.00 | 0.03 | 0.00 | 91 | 1016.3 |
| 20260508122007 | 13 | 182 | 3.2 | 8.0 | 0.00 | 0.03 | 0.00 | 91 | 1015.7 |
| 20260508121825 | 14 | 182 | 4.8 | 8.0 | 0.00 | 0.03 | 0.00 | 91 | 1016.2 |
| 20260508121610 | 13 | 182 | 4.8 | 8.0 | 0.00 | 0.03 | 0.00 | 91 | 1015.5 |
| 20260508121341 | 13 | 195 | 4.8 | 6.4 | 0.00 | 0.03 | 0.00 | 91 | 1016.1 |
| 20260508121033 | 13 | 149 | 1.6 | 3.2 | 0.00 | 0.03 | 0.00 | 91 | 1015.4 |
| 20260508120817 | 13 | 149 | 1.6 | 3.2 | 0.00 | 0.03 | 0.00 | 91 | 1015.9 |
| 20260508120514 | 13 | 149 | 0.0 | 1.6 | 0.00 | 0.03 | 0.00 | 91 | 1015.2 |
| 20260508120354 | 13 | 149 | 0.0 | 1.6 | 0.00 | 0.03 | 0.00 | 91 | 1015.9 |
| 20260508120055 | 13 | 149 | 0.0 | 3.2 | 0.00 | 0.03 | 0.00 | 91 | 1015.1 |
| 20260508115828 | 13 | 149 | 0.0 | 3.2 | 0.00 | 0.03 | 0.00 | 91 | 1015.8 |
| 20260508115526 | 13 | 149 | 0.0 | 3.2 | 0.00 | 0.03 | 0.00 | 91 | 1015.1 |
| 20260508115324 | 13 | 149 | 0.0 | 4.8 | 0.00 | 0.03 | 0.00 | 91 | 1015.7 |
| 20260508115050 | 13 | 149 | 1.6 | 8.0 | 0.00 | 0.03 | 0.00 | 91 | 1015.1 |
| 20260508114841 | 13 | 149 | 1.6 | 8.0 | 0.00 | 0.03 | 0.00 | 91 | 1015.7 |
| 20260508114522 | 13 | 149 | 3.2 | 8.0 | 0.00 | 0.03 | 0.00 | 91 | 1015.2 |
| 20260508114316 | 13 | 149 | 3.2 | 4.8 | 0.00 | 0.03 | 0.00 | 91 | 1015.8 |
| 20260508114011 | 13 | 149 | 1.6 | 4.8 | 0.00 | 0.03 | 0.00 | 91 | 1015.1 |
| 20260508113852 | 13 | 149 | 3.2 | 4.8 | 0.00 | 0.03 | 0.00 | 91 | 1015.8 |
| 20260508113542 | 13 | 149 | 1.6 | 4.8 | 0.00 | 0.03 | 0.00 | 91 | 1015.0 |
| 20260508113347 | 13 | 149 | 3.2 | 4.8 | 0.00 | 0.03 | 0.00 | 91 | 1015.6 |
| 20260508113005 | 13 | 149 | 3.2 | 4.8 | 0.00 | 0.03 | 0.00 | 91 | 1015.0 |
| 20260508112821 | 13 | 149 | 3.2 | 4.8 | 0.00 | 0.03 | 0.00 | 91 | 1015.7 |
| 20260508112536 | 13 | 149 | 1.6 | 4.8 | 0.00 | 0.03 | 0.00 | 91 | 1015.0 |
| 20260508112317 | 13 | 149 | 1.6 | 8.0 | 0.00 | 0.03 | 0.00 | 91 | 1015.5 |
| 20260508112032 | 13 | 149 | 0.0 | 8.0 | 0.00 | 0.03 | 0.00 | 91 | 1015.0 |
| 20260508111854 | 13 | 149 | 1.6 | 8.0 | 0.00 | 0.03 | 0.00 | 91 | 1015.6 |
| 20260508111559 | 13 | 149 | 4.8 | 8.0 | 0.00 | 0.03 | 0.00 | 91 | 1015.1 |
| 20260508111329 | 13 | 149 | 4.8 | 8.0 | 0.00 | 0.03 | 0.00 | 91 | 1015.8 |
| 20260508111045 | 13 | 149 | 1.6 | 4.8 | 0.00 | 0.03 | 0.00 | 91 | 1015.1 |
| 20260508110825 | 13 | 149 | 1.6 | 3.2 | 0.00 | 0.03 | 0.00 | 91 | 1015.7 |
| 20260508110538 | 13 | 149 | 0.0 | 4.8 | 0.00 | 0.03 | 0.00 | 91 | 1015.0 |
| 20260508110337 | 13 | 149 | 1.6 | 4.8 | 0.00 | 0.03 | 0.00 | 91 | 1015.6 |
| 20260508110007 | 13 | 149 | 1.6 | 4.8 | 0.00 | 0.03 | 0.00 | 91 | 1015.1 |
| 20260508105853 | 14 | 150 | 3.2 | 4.8 | 0.00 | 0.03 | 0.00 | 91 | 1015.9 |
| 20260508105541 | 13 | 149 | 3.2 | 4.8 | 0.00 | 0.03 | 0.00 | 91 | 1015.3 |
| 20260508105328 | 13 | 149 | 3.2 | 4.8 | 0.00 | 0.03 | 0.00 | 91 | 1016.0 |
| 20260508105033 | 13 | 120 | 1.6 | 4.8 | 0.00 | 0.03 | 0.00 | 91 | 1015.2 |
| 20260508104824 | 13 | 35 | 1.6 | 4.8 | 0.00 | 0.03 | 0.00 | 91 | 1015.9 |
| 20260508104529 | 13 | 35 | 0.0 | 4.8 | 0.00 | 0.03 | 0.00 | 91 | 1015.3 |
| 20260508104320 | 13 | 35 | 1.6 | 4.8 | 0.00 | 0.03 | 0.00 | 91 | 1015.9 |
| 20260508104020 | 13 | 35 | 1.6 | 4.8 | 0.00 | 0.03 | 0.00 | 91 | 1015.5 |
| 20260508103816 | 13 | 35 | 0.0 | 4.8 | 0.00 | 0.03 | 0.00 | 91 | 1016.1 |
| 20260508103514 | 13 | 35 | 0.0 | 4.8 | 0.00 | 0.03 | 0.00 | 91 | 1015.5 |
| 20260508103332 | 13 | 35 | 1.6 | 4.8 | 0.00 | 0.03 | 0.00 | 91 | 1016.0 |
| 20260508103131 | 13 | 35 | 0.0 | 1.6 | 0.00 | 0.03 | 0.00 | 91 | 1015.5 |
| 20260508102849 | 13 | 35 | 0.0 | 1.6 | 0.00 | 0.03 | 0.00 | 91 | 1016.3 |
| 20260508102529 | 13 | 35 | 0.0 | 3.2 | 0.00 | 0.03 | 0.00 | 91 | 1015.8 |
| 20260508102324 | 13 | 35 | 0.0 | 3.2 | 0.00 | 0.03 | 0.00 | 91 | 1016.5 |
| 20260508102022 | 13 | 35 | 0.0 | 4.8 | 0.00 | 0.03 | 0.00 | 91 | 1015.9 |
| 20260508101819 | 13 | 35 | 1.6 | 4.8 | 0.00 | 0.03 | 0.00 | 91 | 1016.5 |
| 20260508101514 | 13 | 35 | 0.0 | 4.8 | 0.00 | 0.03 | 0.00 | 91 | 1015.8 |
| 20260508101317 | 14 | 35 | 1.6 | 4.8 | 0.00 | 0.03 | 0.00 | 91 | 1016.4 |
| 20260508101101 | 13 | 35 | 0.0 | 3.2 | 0.00 | 0.03 | 0.00 | 91 | 1015.9 |
| 20260508100833 | 14 | 35 | 1.6 | 3.2 | 0.00 | 0.03 | 0.00 | 91 | 1016.5 |
| 20260508100553 | 13 | 35 | 0.0 | 3.2 | 0.00 | 0.03 | 0.00 | 91 | 1016.0 |
| 20260508100329 | 13 | 35 | 0.0 | 0.0 | 0.00 | 0.03 | 0.00 | 91 | 1016.7 |
| 20260508100046 | 13 | 35 | 0.0 | 1.6 | 0.00 | 0.03 | 0.00 | 91 | 1016.2 |
| 20260508095826 | 13 | 35 | 0.0 | 1.6 | 0.00 | 0.03 | 0.00 | 91 | 1016.7 |
| 20260508095540 | 13 | 35 | 0.0 | 3.2 | 0.00 | 0.03 | 0.00 | 91 | 1016.2 |
| 20260508095323 | 13 | 35 | 0.0 | 3.2 | 0.00 | 0.03 | 0.00 | 91 | 1016.7 |
| 20260508095029 | 13 | 35 | 0.0 | 3.2 | 0.00 | 0.03 | 0.00 | 91 | 1016.1 |
| 20260508094819 | 13 | 35 | 1.6 | 3.2 | 0.00 | 0.03 | 0.00 | 91 | 1016.8 |
| 20260508094522 | 13 | 35 | 0.0 | 3.2 | 0.00 | 0.03 | 0.00 | 91 | 1016.4 |
| 20260508094315 | 13 | 35 | 0.0 | 1.6 | 0.00 | 0.03 | 0.00 | 91 | 1016.9 |
| 20260508094014 | 13 | 35 | 0.0 | 1.6 | 0.00 | 0.03 | 0.00 | 91 | 1016.3 |
| 20260508093832 | 13 | 35 | 0.0 | 3.2 | 0.00 | 0.03 | 0.00 | 91 | 1016.8 |
| 20260508093505 | 13 | 35 | 0.0 | 3.2 | 0.00 | 0.03 | 0.00 | 91 | 1016.3 |
| 20260508093328 | 13 | 35 | 0.0 | 3.2 | 0.00 | 0.03 | 0.00 | 91 | 1016.8 |
| 20260508093056 | 13 | 35 | 0.0 | 3.2 | 0.00 | 0.03 | 0.00 | 91 | 1016.2 |
| 20260508092823 | 13 | 35 | 0.0 | 0.0 | 0.00 | 0.03 | 0.00 | 91 | 1016.9 |
| 20260508092548 | 13 | 35 | 0.0 | 1.6 | 0.00 | 0.03 | 0.00 | 91 | 1016.3 |
| 20260508092320 | 13 | 35 | 0.0 | 1.6 | 0.00 | 0.03 | 0.00 | 91 | 1016.9 |
| 20260508092042 | 13 | 35 | 0.0 | 1.6 | 0.00 | 0.03 | 0.00 | 91 | 1016.3 |
| 20260508091817 | 13 | 35 | 0.0 | 3.2 | 0.00 | 0.03 | 0.00 | 91 | 1016.8 |
| 20260508091536 | 13 | 35 | 0.0 | 3.2 | 0.00 | 0.03 | 0.00 | 91 | 1016.2 |
| 20260508091354 | 13 | 35 | 0.0 | 4.8 | 0.00 | 0.03 | 0.00 | 91 | 1016.6 |
| 20260508091101 | 13 | 35 | 0.0 | 6.4 | 0.00 | 0.03 | 0.00 | 91 | 1016.1 |
| 20260508090851 | 13 | 35 | 1.6 | 6.4 | 0.00 | 0.03 | 0.00 | 91 | 1016.6 |
| 20260508090530 | 13 | 35 | 1.6 | 6.4 | 0.00 | 0.03 | 0.00 | 91 | 1015.8 |
| 20260508090347 | 13 | 35 | 3.2 | 6.4 | 0.00 | 0.03 | 0.00 | 91 | 1016.5 |
| 20260508090107 | 13 | 35 | 0.0 | 4.8 | 0.00 | 0.03 | 0.00 | 91 | 1016.1 |
| 20260508085842 | 13 | 35 | 3.2 | 6.4 | 0.00 | 0.03 | 0.00 | 91 | 1016.7 |
| 20260508085526 | 13 | 294 | 0.0 | 6.4 | 0.00 | 0.03 | 0.00 | 91 | 1016.3 |
| 20260508085337 | 13 | 294 | 3.2 | 6.4 | 0.00 | 0.03 | 0.00 | 91 | 1017.0 |
| 20260508085050 | 13 | 324 | 3.2 | 6.4 | 0.00 | 0.03 | 0.00 | 91 | 1016.4 |
| 20260508084827 | 13 | 4 | 3.2 | 4.8 | 0.00 | 0.03 | 0.00 | 91 | 1016.9 |
| 20260508084546 | 13 | 4 | 0.0 | 0.0 | 0.00 | 0.03 | 0.00 | 91 | 1016.5 |
| 20260508084324 | 13 | 4 | 0.0 | 0.0 | 0.00 | 0.03 | 0.00 | 91 | 1017.0 |
| 20260508084039 | 13 | 4 | 0.0 | 0.0 | 0.00 | 0.03 | 0.00 | 91 | 1016.5 |
| 20260508083821 | 13 | 4 | 0.0 | 0.0 | 0.00 | 0.03 | 0.00 | 91 | 1017.0 |
| 20260508083529 | 13 | 4 | 0.0 | 0.0 | 0.00 | 0.03 | 0.00 | 91 | 1016.4 |
| 20260508083317 | 13 | 4 | 0.0 | 0.0 | 0.00 | 0.03 | 0.00 | 91 | 1016.9 |
| 20260508083020 | 13 | 4 | 0.0 | 0.0 | 0.00 | 0.03 | 0.00 | 91 | 1016.3 |
| 20260508082814 | 13 | 4 | 0.0 | 0.0 | 0.00 | 0.03 | 0.00 | 91 | 1016.9 |
| 20260508082546 | 13 | 4 | 0.0 | 0.0 | 0.00 | 0.03 | 0.00 | 91 | 1016.2 |
| 20260508082331 | 13 | 4 | 0.0 | 0.0 | 0.00 | 0.03 | 0.00 | 91 | 1016.7 |
| 20260508082040 | 12 | 4 | 0.0 | 0.0 | 0.00 | 0.03 | 0.00 | 91 | 1015.9 |
| 20260508081827 | 13 | 4 | 0.0 | 3.2 | 0.00 | 0.03 | 0.00 | 91 | 1016.5 |
| 20260508081536 | 12 | 4 | 0.0 | 4.8 | 0.00 | 0.03 | 0.00 | 91 | 1016.0 |
| 20260508081323 | 13 | 4 | 0.0 | 4.8 | 0.00 | 0.03 | 0.00 | 91 | 1016.5 |
| 20260508081029 | 12 | 4 | 1.6 | 4.8 | 0.00 | 0.03 | 0.00 | 91 | 1015.8 |
| 20260508080821 | 13 | 4 | 3.2 | 4.8 | 0.00 | 0.03 | 0.00 | 91 | 1016.4 |
| 20260508080521 | 12 | 4 | 0.0 | 3.2 | 0.00 | 0.03 | 0.00 | 91 | 1015.6 |
| 20260508080317 | 12 | 4 | 1.6 | 1.6 | 0.00 | 0.03 | 0.00 | 91 | 1016.3 |
| 20260508075831 | 12 | 4 | 0.0 | 0.0 | 0.00 | 0.03 | 0.00 | 91 | 1016.1 |
| 20260508075553 | 12 | 4 | 0.0 | 1.6 | 0.00 | 0.03 | 0.00 | 91 | 1015.4 |
| 20260508075328 | 12 | 4 | 0.0 | 1.6 | 0.00 | 0.03 | 0.00 | 91 | 1016.0 |
| 20260508075045 | 12 | 4 | 0.0 | 1.6 | 0.00 | 0.03 | 0.00 | 91 | 1015.3 |
| 20260508074824 | 12 | 4 | 0.0 | 1.6 | 0.00 | 0.03 | 0.00 | 91 | 1016.0 |
| 20260508074538 | 12 | 4 | 0.0 | 0.0 | 0.00 | 0.03 | 0.00 | 91 | 1015.2 |
| 20260508074320 | 12 | 4 | 0.0 | 0.0 | 0.00 | 0.03 | 0.00 | 91 | 1015.9 |
| 20260508074028 | 12 | 4 | 0.0 | 0.0 | 0.00 | 0.03 | 0.00 | 91 | 1015.3 |
| 20260508073816 | 12 | 4 | 0.0 | 0.0 | 0.00 | 0.03 | 0.00 | 90 | 1016.0 |
| 20260508073523 | 12 | 4 | 0.0 | 1.6 | 0.00 | 0.03 | 0.00 | 90 | 1015.4 |
| 20260508073332 | 12 | 4 | 0.0 | 1.6 | 0.00 | 0.03 | 0.00 | 90 | 1016.0 |
| 20260508073008 | 12 | 4 | 0.0 | 1.6 | 0.00 | 0.03 | 0.00 | 90 | 1015.4 |
| 20260508072828 | 12 | 4 | 0.0 | 1.6 | 0.00 | 0.03 | 0.00 | 90 | 1016.1 |
| 20260508072507 | 12 | 4 | 0.0 | 1.6 | 0.00 | 0.03 | 0.00 | 90 | 1015.5 |
| 20260508072324 | 12 | 4 | 0.0 | 1.6 | 0.00 | 0.03 | 0.00 | 90 | 1016.1 |
| 20260508072102 | 12 | 4 | 0.0 | 0.0 | 0.00 | 0.03 | 0.00 | 90 | 1015.5 |
| 20260508071819 | 12 | 4 | 0.0 | 0.0 | 0.00 | 0.03 | 0.00 | 90 | 1016.2 |
| 20260508071555 | 12 | 4 | 0.0 | 0.0 | 0.00 | 0.03 | 0.00 | 90 | 1015.6 |
| 20260508071315 | 12 | 4 | 0.0 | 0.0 | 0.00 | 0.03 | 0.00 | 90 | 1016.1 |
| 20260508071046 | 12 | 4 | 0.0 | 0.0 | 0.00 | 0.03 | 0.00 | 90 | 1015.5 |
| 20260508070831 | 12 | 4 | 0.0 | 0.0 | 0.00 | 0.03 | 0.00 | 90 | 1016.0 |
| 20260508070538 | 12 | 4 | 0.0 | 0.0 | 0.00 | 0.03 | 0.00 | 90 | 1015.3 |
| 20260508070326 | 12 | 4 | 0.0 | 0.0 | 0.00 | 0.03 | 0.00 | 90 | 1016.0 |
| 20260508070030 | 12 | 4 | 0.0 | 0.0 | 0.00 | 0.03 | 0.00 | 90 | 1015.4 |
| 20260508065822 | 13 | 4 | 0.0 | 0.0 | 0.00 | 0.03 | 0.00 | 90 | 1016.1 |
| 20260508065524 | 12 | 4 | 0.0 | 0.0 | 0.00 | 0.03 | 0.00 | 90 | 1015.5 |
| 20260508065319 | 13 | 4 | 0.0 | 0.0 | 0.00 | 0.03 | 0.00 | 90 | 1016.3 |
| 20260508065018 | 12 | 4 | 0.0 | 0.0 | 0.00 | 0.03 | 0.00 | 90 | 1015.7 |
| 20260508064815 | 13 | 4 | 0.0 | 0.0 | 0.00 | 0.03 | 0.00 | 90 | 1016.4 |
| 20260508064615 | 12 | 4 | 0.0 | 0.0 | 0.00 | 0.03 | 0.00 | 90 | 1015.9 |
| 20260508064333 | 13 | 4 | 0.0 | 0.0 | 0.00 | 0.03 | 0.00 | 90 | 1016.6 |
| 20260508064054 | 12 | 4 | 0.0 | 0.0 | 0.00 | 0.03 | 0.00 | 90 | 1016.0 |
| 20260508063827 | 13 | 4 | 0.0 | 0.0 | 0.00 | 0.03 | 0.00 | 90 | 1016.6 |
| 20260508063544 | 12 | 4 | 0.0 | 0.0 | 0.00 | 0.03 | 0.00 | 90 | 1015.9 |
| 20260508063324 | 13 | 4 | 0.0 | 0.0 | 0.00 | 0.03 | 0.00 | 90 | 1016.6 |
| 20260508063039 | 12 | 4 | 0.0 | 0.0 | 0.00 | 0.03 | 0.00 | 90 | 1016.0 |
| 20260508062840 | 13 | 4 | 0.0 | 0.0 | 0.00 | 0.03 | 0.00 | 89 | 1016.7 |
| 20260508062504 | 12 | 4 | 0.0 | 0.0 | 0.00 | 0.03 | 0.00 | 89 | 1016.2 |
| 20260508062336 | 13 | 4 | 0.0 | 0.0 | 0.00 | 0.03 | 0.00 | 90 | 1016.7 |
| 20260508062036 | 12 | 4 | 0.0 | 0.0 | 0.00 | 0.03 | 0.00 | 90 | 1016.2 |
| 20260508061829 | 13 | 4 | 0.0 | 0.0 | 0.00 | 0.03 | 0.00 | 89 | 1016.8 |
| 20260508061534 | 12 | 4 | 0.0 | 1.6 | 0.00 | 0.03 | 0.00 | 89 | 1016.1 |
| 20260508061326 | 13 | 4 | 0.0 | 3.2 | 0.00 | 0.03 | 0.00 | 89 | 1016.7 |
| 20260508061027 | 12 | 4 | 0.0 | 3.2 | 0.00 | 0.03 | 0.00 | 89 | 1016.1 |
| 20260508060824 | 13 | 4 | 0.0 | 3.2 | 0.00 | 0.03 | 0.00 | 89 | 1016.9 |
| 20260508060518 | 13 | 4 | 0.0 | 3.2 | 0.00 | 0.03 | 0.00 | 89 | 1016.3 |
| 20260508060319 | 13 | 4 | 0.0 | 0.0 | 0.00 | 0.03 | 0.00 | 89 | 1016.9 |
| 20260508060104 | 13 | 4 | 0.0 | 0.0 | 0.00 | 0.03 | 0.00 | 89 | 1016.3 |
| 20260508055832 | 13 | 4 | 0.0 | 0.0 | 0.00 | 0.03 | 0.00 | 89 | 1016.8 |
| 20260508055540 | 13 | 4 | 0.0 | 1.6 | 0.00 | 0.03 | 0.00 | 89 | 1016.3 |
| 20260508055329 | 13 | 4 | 0.0 | 1.6 | 0.00 | 0.03 | 0.00 | 89 | 1016.9 |
| 20260508055032 | 13 | 4 | 0.0 | 1.6 | 0.00 | 0.03 | 0.00 | 89 | 1016.3 |
| 20260508054823 | 13 | 4 | 0.0 | 1.6 | 0.00 | 0.03 | 0.00 | 89 | 1017.0 |
| 20260508054526 | 13 | 4 | 0.0 | 1.6 | 0.00 | 0.03 | 0.00 | 89 | 1016.5 |
| 20260508054319 | 13 | 4 | 0.0 | 1.6 | 0.00 | 0.03 | 0.00 | 89 | 1017.1 |
| 20260508054021 | 13 | 4 | 0.0 | 3.2 | 0.00 | 0.03 | 0.00 | 89 | 1016.5 |
| 20260508053815 | 13 | 4 | 0.0 | 3.2 | 0.00 | 0.03 | 0.00 | 89 | 1017.0 |
| 20260508053506 | 13 | 4 | 0.0 | 3.2 | 0.00 | 0.03 | 0.00 | 90 | 1016.4 |
| 20260508053331 | 13 | 4 | 1.6 | 3.2 | 0.00 | 0.03 | 0.00 | 90 | 1017.2 |
| 20260508053102 | 13 | 4 | 0.0 | 3.2 | 0.00 | 0.03 | 0.00 | 89 | 1016.4 |
| 20260508052828 | 13 | 4 | 0.0 | 4.8 | 0.00 | 0.03 | 0.00 | 89 | 1017.0 |
| 20260508052554 | 13 | 4 | 0.0 | 4.8 | 0.00 | 0.03 | 0.00 | 89 | 1016.2 |
| 20260508052325 | 13 | 4 | 1.6 | 4.8 | 0.00 | 0.03 | 0.00 | 89 | 1016.9 |
| 20260508052047 | 13 | 4 | 1.6 | 4.8 | 0.00 | 0.03 | 0.00 | 89 | 1016.3 |
| 20260508051820 | 13 | 4 | 0.0 | 0.0 | 0.00 | 0.03 | 0.00 | 89 | 1017.0 |
| 20260508051546 | 13 | 4 | 0.0 | 0.0 | 0.00 | 0.03 | 0.00 | 89 | 1016.5 |
| 20260508051316 | 13 | 4 | 0.0 | 0.0 | 0.00 | 0.03 | 0.00 | 89 | 1017.2 |
| 20260508051030 | 13 | 4 | 0.0 | 0.0 | 0.00 | 0.03 | 0.00 | 89 | 1016.5 |
| 20260508050834 | 13 | 4 | 0.0 | 0.0 | 0.00 | 0.03 | 0.00 | 89 | 1017.2 |
| 20260508050513 | 13 | 4 | 0.0 | 0.0 | 0.00 | 0.03 | 0.00 | 89 | 1016.5 |
| 20260508050322 | 13 | 4 | 0.0 | 0.0 | 0.00 | 0.03 | 0.00 | 89 | 1017.3 |
| 20260508050048 | 13 | 4 | 0.0 | 0.0 | 0.00 | 0.03 | 0.00 | 89 | 1016.7 |
| 20260508045831 | 13 | 4 | 0.0 | 0.0 | 0.00 | 0.03 | 0.03 | 89 | 1017.4 |
| 20260508045509 | 13 | 4 | 0.0 | 0.0 | 0.00 | 0.03 | 0.03 | 89 | 1016.5 |
| 20260508045350 | 13 | 4 | 0.0 | 0.0 | 0.00 | 0.03 | 0.03 | 89 | 1017.1 |
| 20260508045038 | 13 | 4 | 0.0 | 0.0 | 0.00 | 0.03 | 0.03 | 88 | 1016.4 |
| 20260508044824 | 13 | 4 | 0.0 | 0.0 | 0.00 | 0.03 | 0.03 | 88 | 1017.2 |
| 20260508044533 | 13 | 4 | 0.0 | 0.0 | 0.00 | 0.03 | 0.03 | 88 | 1016.7 |
| 20260508044340 | 13 | 4 | 0.0 | 0.0 | 0.00 | 0.03 | 0.03 | 88 | 1017.2 |
| 20260508044057 | 13 | 4 | 0.0 | 0.0 | 0.00 | 0.03 | 0.03 | 88 | 1016.5 |
| 20260508043815 | 13 | 4 | 0.0 | 0.0 | 0.00 | 0.03 | 0.03 | 88 | 1017.0 |
| 20260508043550 | 13 | 4 | 0.0 | 0.0 | 0.00 | 0.03 | 0.03 | 88 | 1016.5 |
| 20260508043331 | 13 | 4 | 0.0 | 0.0 | 0.00 | 0.03 | 0.03 | 88 | 1017.2 |
| 20260508043042 | 13 | 4 | 0.0 | 0.0 | 0.00 | 0.03 | 0.03 | 88 | 1016.7 |
| 20260508042828 | 13 | 4 | 0.0 | 0.0 | 0.00 | 0.03 | 0.03 | 88 | 1017.4 |
| 20260508042534 | 13 | 4 | 0.0 | 0.0 | 0.00 | 0.03 | 0.03 | 88 | 1016.7 |
| 20260508042325 | 13 | 4 | 0.0 | 0.0 | 0.00 | 0.03 | 0.03 | 88 | 1017.4 |
| 20260508042026 | 13 | 4 | 0.0 | 0.0 | 0.00 | 0.03 | 0.03 | 88 | 1016.8 |
| 20260508041822 | 13 | 4 | 0.0 | 0.0 | 0.00 | 0.03 | 0.03 | 88 | 1017.5 |
| 20260508041522 | 13 | 4 | 0.0 | 3.2 | 0.00 | 0.03 | 0.03 | 88 | 1016.8 |
| 20260508041320 | 13 | 4 | 0.0 | 3.2 | 0.00 | 0.03 | 0.03 | 88 | 1017.5 |
| 20260508041004 | 13 | 4 | 0.0 | 3.2 | 0.00 | 0.03 | 0.03 | 87 | 1017.0 |
| 20260508040836 | 13 | 4 | 1.6 | 3.2 | 0.00 | 0.03 | 0.03 | 88 | 1017.7 |
| 20260508040541 | 13 | 4 | 0.0 | 1.6 | 0.00 | 0.03 | 0.03 | 87 | 1016.9 |
| 20260508040332 | 13 | 4 | 0.0 | 1.6 | 0.00 | 0.03 | 0.03 | 87 | 1017.5 |
| 20260508040038 | 13 | 4 | 0.0 | 3.2 | 0.00 | 0.03 | 0.03 | 87 | 1017.0 |
| 20260508035827 | 13 | 4 | 0.0 | 3.2 | 0.00 | 0.03 | 0.03 | 87 | 1017.8 |
| 20260508035525 | 13 | 4 | 0.0 | 3.2 | 0.00 | 0.03 | 0.03 | 87 | 1017.1 |
| 20260508035322 | 14 | 4 | 1.6 | 3.2 | 0.00 | 0.03 | 0.03 | 87 | 1017.5 |
| 20260508035048 | 13 | 4 | 0.0 | 0.0 | 0.00 | 0.03 | 0.03 | 87 | 1016.7 |
| 20260508034819 | 14 | 4 | 0.0 | 0.0 | 0.00 | 0.03 | 0.03 | 87 | 1017.2 |
| 20260508034540 | 13 | 4 | 0.0 | 0.0 | 0.00 | 0.03 | 0.03 | 87 | 1016.6 |
| 20260508034315 | 14 | 4 | 0.0 | 0.0 | 0.00 | 0.03 | 0.03 | 87 | 1017.3 |
| 20260508034033 | 13 | 4 | 0.0 | 0.0 | 0.00 | 0.03 | 0.03 | 87 | 1016.6 |
| 20260508033831 | 14 | 4 | 0.0 | 0.0 | 0.00 | 0.03 | 0.03 | 86 | 1017.2 |
| 20260508033527 | 13 | 4 | 0.0 | 0.0 | 0.00 | 0.03 | 0.03 | 86 | 1016.5 |
| 20260508033329 | 14 | 4 | 0.0 | 0.0 | 0.00 | 0.03 | 0.03 | 86 | 1017.2 |
| 20260508033010 | 14 | 4 | 0.0 | 0.0 | 0.00 | 0.03 | 0.03 | 86 | 1016.6 |
| 20260508032825 | 14 | 4 | 0.0 | 0.0 | 0.00 | 0.03 | 0.03 | 86 | 1017.3 |
| 20260508032504 | 14 | 4 | 0.0 | 0.0 | 0.00 | 0.03 | 0.03 | 86 | 1016.6 |
| 20260508032322 | 14 | 4 | 0.0 | 0.0 | 0.00 | 0.03 | 0.03 | 86 | 1017.3 |
| 20260508032101 | 14 | 4 | 0.0 | 0.0 | 0.00 | 0.03 | 0.03 | 86 | 1016.6 |
| 20260508031818 | 14 | 4 | 0.0 | 0.0 | 0.00 | 0.03 | 0.03 | 86 | 1017.5 |
| 20260508031550 | 14 | 4 | 0.0 | 1.6 | 0.00 | 0.03 | 0.03 | 86 | 1016.7 |
| 20260508031315 | 15 | 4 | 0.0 | 3.2 | 0.00 | 0.03 | 0.03 | 86 | 1017.2 |
| 20260508031043 | 14 | 4 | 0.0 | 3.2 | 0.00 | 0.03 | 0.03 | 86 | 1016.7 |
| 20260508030829 | 15 | 4 | 0.0 | 3.2 | 0.00 | 0.03 | 0.03 | 86 | 1017.3 |
| 20260508030536 | 14 | 4 | 1.6 | 3.2 | 0.00 | 0.03 | 0.03 | 86 | 1016.8 |
| 20260508030326 | 15 | 4 | 1.6 | 3.2 | 0.00 | 0.03 | 0.03 | 86 | 1017.4 |
| 20260508030028 | 14 | 4 | 0.0 | 1.6 | 0.00 | 0.03 | 0.03 | 86 | 1016.8 |
| 20260508025823 | 15 | 4 | 0.0 | 1.6 | 0.00 | 0.03 | 0.03 | 86 | 1017.4 |
| 20260508025521 | 14 | 4 | 0.0 | 0.0 | 0.00 | 0.03 | 0.03 | 86 | 1016.7 |
| 20260508025319 | 15 | 4 | 0.0 | 1.6 | 0.00 | 0.03 | 0.03 | 86 | 1017.2 |
| 20260508025015 | 14 | 4 | 0.0 | 3.2 | 0.00 | 0.03 | 0.03 | 86 | 1016.6 |
| 20260508024817 | 15 | 4 | 0.0 | 4.8 | 0.00 | 0.03 | 0.03 | 86 | 1017.2 |
| 20260508024558 | 14 | 4 | 0.0 | 6.4 | 0.00 | 0.03 | 0.03 | 86 | 1016.5 |
| 20260508024333 | 15 | 4 | 1.6 | 6.4 | 0.00 | 0.03 | 0.03 | 86 | 1017.3 |
| 20260508024050 | 15 | 4 | 3.2 | 6.4 | 0.00 | 0.03 | 0.03 | 86 | 1016.5 |
| 20260508023829 | 15 | 4 | 3.2 | 6.4 | 0.00 | 0.03 | 0.03 | 85 | 1017.0 |
| 20260508023544 | 15 | 4 | 0.0 | 0.0 | 0.00 | 0.03 | 0.03 | 85 | 1016.3 |
| 20260508023345 | 15 | 4 | 0.0 | 1.6 | 0.00 | 0.03 | 0.03 | 85 | 1016.8 |
| 20260508023016 | 15 | 4 | 0.0 | 3.2 | 0.00 | 0.03 | 0.03 | 85 | 1015.9 |
| 20260508022841 | 15 | 4 | 0.0 | 3.2 | 0.00 | 0.03 | 0.03 | 85 | 1016.6 |
| 20260508022541 | 15 | 4 | 0.0 | 4.8 | 0.00 | 0.03 | 0.03 | 85 | 1015.7 |
| 20260508022315 | 15 | 4 | 0.0 | 4.8 | 0.00 | 0.03 | 0.03 | 85 | 1016.4 |
| 20260508022034 | 15 | 4 | 0.0 | 6.4 | 0.00 | 0.03 | 0.03 | 85 | 1015.5 |
| 20260508021828 | 15 | 4 | 3.2 | 8.0 | 0.00 | 0.03 | 0.03 | 85 | 1016.3 |
| 20260508021528 | 15 | 4 | 1.6 | 8.0 | 0.00 | 0.03 | 0.03 | 85 | 1015.8 |
| 20260508021324 | 15 | 4 | 3.2 | 8.0 | 0.00 | 0.03 | 0.03 | 85 | 1016.5 |
| 20260508021024 | 15 | 4 | 3.2 | 6.4 | 0.00 | 0.03 | 0.03 | 85 | 1015.7 |
| 20260508020821 | 15 | 8 | 3.2 | 6.4 | 0.00 | 0.03 | 0.03 | 84 | 1016.4 |
| 20260508020504 | 15 | 4 | 3.2 | 6.4 | 0.00 | 0.03 | 0.03 | 84 | 1015.7 |
| 20260508020317 | 15 | 354 | 3.2 | 6.4 | 0.00 | 0.03 | 0.03 | 84 | 1016.4 |
| 20260508020057 | 15 | 14 | 3.2 | 6.4 | 0.00 | 0.03 | 0.03 | 84 | 1015.7 |
| 20260508015832 | 15 | 32 | 4.8 | 6.4 | 0.00 | 0.03 | 0.03 | 84 | 1016.4 |
| 20260508015550 | 15 | 62 | 1.6 | 8.0 | 0.00 | 0.03 | 0.03 | 83 | 1015.6 |
| 20260508015327 | 15 | 62 | 3.2 | 8.0 | 0.00 | 0.03 | 0.03 | 83 | 1016.1 |
| 20260508015010 | 15 | 62 | 3.2 | 8.0 | 0.00 | 0.03 | 0.03 | 83 | 1015.3 |
| 20260508014840 | 16 | 62 | 4.8 | 8.0 | 0.00 | 0.03 | 0.03 | 83 | 1015.9 |
| 20260508014555 | 15 | 56 | 3.2 | 6.4 | 0.00 | 0.03 | 0.03 | 83 | 1015.3 |
| 20260508014328 | 16 | 52 | 3.2 | 6.4 | 0.00 | 0.03 | 0.03 | 82 | 1016.1 |
| 20260508014048 | 15 | 55 | 0.0 | 8.0 | 0.00 | 0.03 | 0.03 | 82 | 1015.7 |
| 20260508013845 | 16 | 54 | 1.6 | 8.0 | 0.00 | 0.03 | 0.03 | 81 | 1016.3 |
| 20260508013511 | 15 | 54 | 3.2 | 8.0 | 0.00 | 0.03 | 0.03 | 81 | 1015.4 |
| 20260508013321 | 16 | 63 | 3.2 | 8.0 | 0.00 | 0.03 | 0.03 | 80 | 1016.3 |
| 20260508013004 | 16 | 21 | 1.6 | 4.8 | 0.00 | 0.03 | 0.03 | 80 | 1015.7 |
| 20260508012817 | 16 | 28 | 1.6 | 4.8 | 0.00 | 0.03 | 0.03 | 80 | 1016.3 |
| 20260508012558 | 16 | 28 | 1.6 | 4.8 | 0.00 | 0.03 | 0.03 | 80 | 1015.4 |
| 20260508012314 | 16 | 67 | 3.2 | 4.8 | 0.00 | 0.03 | 0.03 | 79 | 1016.1 |
| 20260508012050 | 16 | 67 | 1.6 | 6.4 | 0.00 | 0.03 | 0.03 | 79 | 1015.4 |
| 20260508011830 | 16 | 66 | 1.6 | 6.4 | 0.00 | 0.03 | 0.03 | 79 | 1016.0 |
| 20260508011545 | 16 | 66 | 1.6 | 6.4 | 0.00 | 0.03 | 0.03 | 79 | 1015.4 |
| 20260508011327 | 16 | 66 | 3.2 | 6.4 | 0.00 | 0.03 | 0.03 | 78 | 1016.2 |
| 20260508011034 | 16 | 67 | 1.6 | 4.8 | 0.00 | 0.03 | 0.03 | 78 | 1015.6 |
| 20260508010823 | 16 | 66 | 1.6 | 4.8 | 0.00 | 0.03 | 0.03 | 78 | 1016.3 |
| 20260508010528 | 16 | 66 | 1.6 | 6.4 | 0.00 | 0.03 | 0.03 | 78 | 1015.5 |
| 20260508010338 | 16 | 66 | 1.6 | 9.7 | 0.00 | 0.03 | 0.03 | 77 | 1016.1 |
| 20260508010054 | 16 | 66 | 1.6 | 9.7 | 0.00 | 0.03 | 0.03 | 78 | 1015.2 |
| 20260508005852 | 16 | 97 | 3.2 | 9.7 | 0.00 | 0.03 | 0.03 | 77 | 1015.9 |
| 20260508005529 | 16 | 99 | 3.2 | 9.7 | 0.00 | 0.03 | 0.03 | 77 | 1015.1 |
| 20260508005327 | 17 | 66 | 3.2 | 9.7 | 0.00 | 0.03 | 0.03 | 77 | 1015.8 |
| 20260508005008 | 16 | 51 | 3.2 | 9.7 | 0.00 | 0.03 | 0.03 | 76 | 1015.3 |
| 20260508004822 | 17 | 57 | 4.8 | 12.9 | 0.00 | 0.03 | 0.03 | 76 | 1016.0 |
| 20260508004603 | 16 | 94 | 4.8 | 12.9 | 0.00 | 0.03 | 0.03 | 76 | 1015.4 |
| 20260508004320 | 17 | 70 | 3.2 | 12.9 | 0.00 | 0.03 | 0.03 | 76 | 1016.0 |
| 20260508004054 | 17 | 114 | 3.2 | 12.9 | 0.00 | 0.03 | 0.03 | 76 | 1015.4 |
| 20260508003816 | 17 | 77 | 4.8 | 9.7 | 0.00 | 0.03 | 0.03 | 76 | 1016.0 |
| 20260508003548 | 17 | 62 | 4.8 | 9.7 | 0.00 | 0.03 | 0.03 | 75 | 1015.4 |
| 20260508003332 | 17 | 39 | 4.8 | 11.3 | 0.00 | 0.03 | 0.03 | 76 | 1016.3 |
| 20260508003057 | 17 | 75 | 3.2 | 11.3 | 0.00 | 0.03 | 0.03 | 76 | 1015.5 |
| 20260508002828 | 17 | 68 | 4.8 | 9.7 | 0.00 | 0.03 | 0.03 | 76 | 1016.3 |
| 20260508002538 | 17 | 70 | 3.2 | 8.0 | 0.00 | 0.03 | 0.03 | 76 | 1015.7 |
| 20260508002343 | 17 | 88 | 3.2 | 6.4 | 0.00 | 0.03 | 0.03 | 76 | 1016.6 |
| 20260508002003 | 17 | 88 | 3.2 | 6.4 | 0.00 | 0.03 | 0.03 | 76 | 1015.9 |
| 20260508001837 | 17 | 88 | 4.8 | 6.4 | 0.00 | 0.03 | 0.03 | 76 | 1016.6 |
| 20260508001536 | 17 | 88 | 1.6 | 4.8 | 0.00 | 0.03 | 0.03 | 76 | 1016.1 |
| 20260508001333 | 17 | 88 | 1.6 | 4.8 | 0.00 | 0.03 | 0.03 | 75 | 1016.8 |
| 20260508001031 | 17 | 88 | 1.6 | 4.8 | 0.00 | 0.03 | 0.03 | 75 | 1016.2 |
| 20260508000829 | 17 | 88 | 3.2 | 4.8 | 0.00 | 0.03 | 0.03 | 75 | 1016.8 |
| 20260508000524 | 17 | 89 | 1.6 | 4.8 | 0.00 | 0.03 | 0.03 | 74 | 1016.3 |
| 20260508000324 | 17 | 88 | 3.2 | 4.8 | 0.00 | 0.03 | 0.03 | 74 | 1017.0 |
| 20260508000018 | 17 | 60 | 1.6 | 3.2 | 0.00 | 0.03 | 0.03 | 74 | 1016.5 |
| 20260507235820 | 17 | 60 | 0.0 | 4.8 | 0.00 | 0.03 | 0.03 | 75 | 1017.2 |
| 20260507235603 | 17 | 61 | 0.0 | 4.8 | 0.00 | 0.03 | 0.03 | 74 | 1016.6 |
| 20260507235317 | 17 | 60 | 3.2 | 4.8 | 0.00 | 0.03 | 0.03 | 74 | 1017.3 |
| 20260507235051 | 17 | 61 | 1.6 | 4.8 | 0.00 | 0.03 | 0.03 | 73 | 1016.6 |
| 20260507234849 | 17 | 56 | 1.6 | 4.8 | 0.00 | 0.03 | 0.03 | 74 | 1017.3 |
| 20260507234527 | 17 | 87 | 1.6 | 4.8 | 0.00 | 0.03 | 0.03 | 73 | 1016.7 |
| 20260507234325 | 17 | 77 | 3.2 | 4.8 | 0.00 | 0.03 | 0.03 | 73 | 1017.2 |
| 20260507234010 | 17 | 64 | 0.0 | 3.2 | 0.00 | 0.03 | 0.03 | 74 | 1016.7 |
| 20260507233822 | 17 | 64 | 0.0 | 3.2 | 0.00 | 0.03 | 0.03 | 74 | 1017.3 |
| 20260507233502 | 17 | 64 | 0.0 | 6.4 | 0.00 | 0.03 | 0.03 | 74 | 1016.8 |
| 20260507233317 | 17 | 64 | 1.6 | 6.4 | 0.00 | 0.03 | 0.03 | 73 | 1017.4 |
| 20260507233054 | 17 | 60 | 1.6 | 11.3 | 0.00 | 0.03 | 0.03 | 73 | 1016.7 |
| 20260507232832 | 17 | 60 | 1.6 | 11.3 | 0.00 | 0.03 | 0.03 | 73 | 1017.4 |
| 20260507232545 | 17 | 81 | 3.2 | 11.3 | 0.00 | 0.03 | 0.03 | 73 | 1016.5 |
| 20260507232349 | 17 | 102 | 4.8 | 11.3 | 0.00 | 0.03 | 0.03 | 72 | 1017.1 |
| 20260507232015 | 17 | 89 | 3.2 | 6.4 | 0.00 | 0.03 | 0.03 | 72 | 1016.7 |
| 20260507231823 | 17 | 46 | 4.8 | 6.4 | 0.00 | 0.03 | 0.03 | 72 | 1017.3 |
| 20260507231503 | 17 | 109 | 1.6 | 6.4 | 0.00 | 0.03 | 0.03 | 73 | 1016.8 |
| 20260507231318 | 17 | 137 | 1.6 | 11.3 | 0.00 | 0.03 | 0.03 | 72 | 1017.4 |
| 20260507231058 | 17 | 116 | 0.0 | 11.3 | 0.00 | 0.03 | 0.03 | 73 | 1016.6 |
| 20260507230854 | 17 | 27 | 3.2 | 11.3 | 0.00 | 0.03 | 0.03 | 73 | 1017.2 |
| 20260507230533 | 17 | 76 | 4.8 | 11.3 | 0.00 | 0.03 | 0.03 | 72 | 1016.4 |
| 20260507230329 | 17 | 78 | 6.4 | 9.7 | 0.00 | 0.03 | 0.03 | 72 | 1017.1 |
| 20260507230055 | 17 | 83 | 4.8 | 9.7 | 0.00 | 0.03 | 0.03 | 73 | 1016.6 |
| 20260507225823 | 17 | 50 | 4.8 | 8.0 | 0.00 | 0.03 | 0.03 | 73 | 1017.1 |
| 20260507225546 | 17 | 74 | 3.2 | 8.0 | 0.00 | 0.03 | 0.03 | 72 | 1016.7 |
| 20260507225321 | 17 | 89 | 3.2 | 8.0 | 0.00 | 0.03 | 0.03 | 72 | 1017.7 |
| 20260507225038 | 17 | 34 | 3.2 | 8.0 | 0.00 | 0.03 | 0.03 | 72 | 1017.0 |
| 20260507224817 | 17 | 43 | 3.2 | 9.7 | 0.00 | 0.03 | 0.03 | 73 | 1017.6 |
| 20260507224550 | 17 | 124 | 4.8 | 11.3 | 0.00 | 0.03 | 0.03 | 73 | 1016.9 |
| 20260507224353 | 17 | 64 | 4.8 | 11.3 | 0.00 | 0.03 | 0.03 | 73 | 1017.6 |
| 20260507224057 | 17 | 50 | 4.8 | 11.3 | 0.00 | 0.03 | 0.03 | 73 | 1017.1 |
| 20260507223829 | 17 | 52 | 4.8 | 6.4 | 0.00 | 0.03 | 0.03 | 73 | 1017.7 |
| 20260507223548 | 17 | 108 | 1.6 | 8.0 | 0.00 | 0.03 | 0.03 | 74 | 1016.9 |
| 20260507223343 | 17 | 107 | 3.2 | 11.3 | 0.00 | 0.03 | 0.03 | 73 | 1017.6 |
| 20260507223022 | 17 | 110 | 3.2 | 11.3 | 0.00 | 0.03 | 0.03 | 73 | 1016.9 |